Hourly Weather Roundup
Issued by NWS Central Illinois

Home | Current Version | Previous Version | Text Only | Print | Product List | Glossary On
Versions: 1 2 3 4 5 6 7 8 9 10 11 12 13 14 15 16 17 18 19 20 21 22 23 24 25 26 27 28 29 30 31 32 33 34 35 36 37 38 39 40 41 42 43 44 45 46 47 48 49 50
000
NZUS43 KILX 242210
HWRILX

AREA WEATHER ROUNDUP
NATIONAL WEATHER SERVICE, LINCOLN IL
500 PM CDT FRI APR 24 2015


CITY           SKY/WX    TMP DP  RH WIND       PRES   REMARKS
BLOOMINGTON    CLOUDY    61  29  29 S21       29.88F
CHAMPAIGN      CLOUDY    61  27  27 SE17      29.90F
DECATUR        CLOUDY    60  30  32 S15       29.89F
EFFINGHAM      CLOUDY    60  26  27 SE8G17    29.92F
FLORA          CLOUDY    61  33  34 SE14      29.92F
GALESBURG      CLOUDY    60  32  35 SE15G22   29.80F
JACKSONVILLE   CLOUDY    62  36  37 SE13G21   29.82F
LACON          CLOUDY    61  26  26 S15       29.83F
LAWRENCEVILLE  CLOUDY    62  30  29 S12       29.93F
LITCHFIELD     CLOUDY    59  35  39 S16       29.86F
$$


CITY           SKY/WX    TMP DP  RH WIND       PRES   REMARKS
LINCOLN        CLOUDY    61  31  32 SE10G18   29.86F
MACOMB         CLOUDY    64  33  31 SE21      29.81F
MATTOON        CLOUDY    59  30  33 S13       29.91F
MT CARMEL AP   CLOUDY    64  23  20 S12       29.93F
OLNEY-NOBLE AP CLOUDY    59  32  36 SE10      29.93F
PARIS          CLOUDY    60  32  34 SE9       29.93F
PEORIA         CLOUDY    63  29  27 S16G26    29.85F
PONTIAC        CLOUDY    64  26  23 SE16      29.89F
RANTOUL        CLOUDY    62  26  25 SE16      29.91F
ROBINSON       CLOUDY    62  29  29 SE8       29.94F
SPRINGFIELD    CLOUDY    62  33  33 S20       29.85F
TAYLORVILLE    CLOUDY    59  32  36 S12       29.87F
$$

...REGIONAL REPORTS...


CITY           SKY/WX    TMP DP  RH WIND       PRES   REMARKS
CHICAGO O`HARE CLOUDY    52  22  30 NE13      29.93F
KANKAKEE       CLOUDY    62  29  29 SE12      29.92S
MOLINE         LGT RAIN  51  43  74 N9        29.87R
MOUNT VERNON   CLOUDY    63  32  31 S13       29.92F
PITTSFIELD     CLOUDY    65  37  35 SE17      29.79F
QUINCY         CLOUDY    65  37  35 S14G25    29.75F
ROCKFORD       LGT RAIN  52  31  44 NE14      29.94S
$$


CITY           SKY/WX    TMP DP  RH WIND       PRES   REMARKS
BURLINGTON     CLOUDY    63  36  36 SE14G23   29.75F
CEDAR RAPIDS   LGT RAIN  45  42  89 E20       29.79F
DES MOINES     CLOUDY    56  49  77 E9        29.70F
KIRKSVILLE     CLOUDY    63  50  62 S7        29.71F
OTTUMWA        TSTM      55  47  74 NE12      29.73F
ST LOUIS       CLOUDY    65  37  35 S23G29    29.83F
$$


CITY           SKY/WX    TMP DP  RH WIND       PRES   REMARKS
TERRE HAUTE    CLOUDY    62  30  29 S10       29.93F
EVANSVILLE     CLOUDY    63  33  32 S6        29.95F
INDIANAPOLIS   CLOUDY    60  25  26 SE10      29.94F
LAFAYETTE      CLOUDY    59  25  27 S8        29.94F
MADISON        LGT RAIN  43  38  82 SE10      29.94F
MILWAUKEE      CLOUDY    44  26  49 SE5       29.99S
$$





USA.gov is the U.S. government's official web portal to all federal, state and local government web resources and services.